Regional Weather Roundup
Issued by NWS

Home | Current Version | Previous Version | Text Only | Print | Product List | Glossary On
Versions: 1 2 3 4 5 6 7 8 9 10 11 12 13 14 15 16 17 18 19 20 21 22 23 24 25 26 27 28 29 30 31 32 33 34 35 36 37 38 39 40 41 42 43 44 45 46 47 48 49 50
557
ASUS43 KTOP 231759
RWRKS

WEATHER ROUNDUP FOR KANSAS
NATIONAL WEATHER SERVICE GOODLAND KS
1200 PM CST MON JAN 23 2017

NOTE:  "FAIR" INDICATES FEW OR NO CLOUDS BELOW 12,000 FEET WITH NO
SIGNIFICANT WEATHER AND/OR OBSTRUCTIONS TO VISIBILITY.

KSZ001>006-013>018-027>032-041>047-231900-
NORTHWEST KANSAS

CITY           SKY/WX    TMP DP  RH WIND       PRES   REMARKS
GOODLAND       SUNNY     46  28  49 S16       29.63F
6HR MIN TEMP:  26; 6HR MAX TEMP:  46;

HAYS           SUNNY     50  28  42 S18       29.76F
HILL CITY      SUNNY     51  30  44 S20G25    29.73F
6HR MIN TEMP:  22; 6HR MAX TEMP:  51;

RUSSELL        SUNNY     49  30  48 S18       29.77F
6HR MIN TEMP:  24; 6HR MAX TEMP:  49;

$$

KSZ061>065-074>080-084>089-231900-
SOUTHWEST KANSAS

CITY           SKY/WX    TMP DP  RH WIND       PRES   REMARKS
DODGE CITY     SUNNY     49  32  52 S25G32    29.75F
6HR MIN TEMP:  28; 6HR MAX TEMP:  49;

GARDEN CITY    SUNNY     46  32  58 S14       29.72F
6HR MIN TEMP:  27; 6HR MAX TEMP:  46;

GREAT BEND     SUNNY     49  31  49 S21G26    29.78F
LIBERAL          N/A     48  34  57 SW12      29.74F
$$

KSZ066>073-081>083-090>101-231900-
SOUTHEAST KANSAS

CITY           SKY/WX    TMP DP  RH WIND       PRES   REMARKS
CHANUTE        SUNNY     46  33  60 S6        29.91F
6HR MIN TEMP:  25; 6HR MAX TEMP:  46;

COFFEYVILLE    SUNNY     46  36  68 W3        29.92F
6HR MIN TEMP:  28; 6HR MAX TEMP:  47;

HUTCHINSON     SUNNY     50  31  48 S15       29.85F
6HR MIN TEMP:  23; 6HR MAX TEMP:  50;

MEDICINE LODGE   N/A     45  32  60 S14       29.84F
NEWTON         SUNNY     46  36  68 S12       29.86F
PARSONS        SUNNY     46  36  68 VRB3      29.92F
6HR MIN TEMP:  26; 6HR MAX TEMP:  47;

WICHITA INTL   MOSUNNY   47  34  60 S10       29.89F
6HR MIN TEMP:  25; 6HR MAX TEMP:  47;

WICHITA JABRA  SUNNY     48  34  58 S9        29.88F
6HR MIN TEMP:  27; 6HR MAX TEMP:  48;

WINFIELD       SUNNY     50  34  54 S8        29.90F
6HR MIN TEMP:  26; 6HR MAX TEMP:  50;

$$

KSZ007>012-019>026-033>040-048>060-102>105-231900-
NORTHEAST KANSAS

CITY           SKY/WX    TMP DP  RH WIND       PRES   REMARKS
CONCORDIA      SUNNY     46  32  58 S10       29.82F
6HR MIN TEMP:  23; 6HR MAX TEMP:  46;

EMPORIA        SUNNY     49  33  54 VRB7      29.87F
6HR MIN TEMP:  25; 6HR MAX TEMP:  49;

LAWRENCE       FOG       34  34 100 W3        29.92F VSB 1
6HR MIN TEMP:  22; 6HR MAX TEMP:  34;

MANHATTAN      SUNNY     47  33  58 VRB5      29.87F
6HR MIN TEMP:  21; 6HR MAX TEMP:  47;

OLATHE IND     FOG       33  33 100 N3        29.92S VSB 3/4
6HR MIN TEMP:  26; 6HR MAX TEMP:  33;

OLATHE EXE     CLOUDY    33  33 100 CALM      29.91F FOG
6HR MIN TEMP:  29; 6HR MAX TEMP:  33;

SALINA         SUNNY     48  34  58 S12G20    29.86F
TOPEKA BILLARD FOG       34  32  92 CALM      29.92S VSB 3/4
6HR MIN TEMP:  24; 6HR MAX TEMP:  34;

TOPEKA FORBES  FOG       34  32  92 SE3       29.91F VSB 1/2
6HR MIN TEMP:  24; 6HR MAX TEMP:  34;

$$




USA.gov is the U.S. government's official web portal to all federal, state and local government web resources and services.